User: anonymous   Login
Location: Unspecified
(0.0000°N, 0.0000°E)
Time: 21:27:38
(UTC+00:00)
Language:

XW-2A - Orbit

View from above orbital plane
View from above orbital plane
View from above satellite
View from above satellite

Ground track
Ground track

The orbit data is extracted from the following two-line orbital elements,

1 40903U 15049E   22268.57868465  .00025781  00000-0  35042-3 0  9994
2 40903  97.1687 327.4621 0010230 107.4842  30.2225 15.57520210394821
Epoch (UTC): 25 September 2022 13:53:18
Eccentricity: 0.0010230
inclination: 97.1687°
perigee height: 388 km
apogee height: 402 km
right ascension of ascending node: 327.4621°
argument of perigee: 107.4842°
revolutions per day: 15.57520210
mean anomaly at epoch: 30.2225°
orbit number at epoch: 39482

The dashed part of the orbit path shows where the satellite is in the earth's shadow,  

DLR